Weather History for Farmville, VA

Change the Weather History Date:

Thursday, November 10, 2011

  Actual Average Record
Temperature  
Mean Temperature 52 °F -  
Max Temperature 62 °F 62 °F 80 °F (1931)
Min Temperature 42 °F 37 °F 20 °F (1973)
Degree Days  
Heating Degree Days 13    
Growing Degree Days 2 (Base 50)    
Moisture  
Dew Point 48 °F    
Average Humidity 92    
Maximum Humidity 100    
Minimum Humidity 59    
Precipitation  
Precipitation 0.12 in - - ()
Sea Level Pressure  
Sea Level Pressure 29.86 in    
Wind  
Wind Speed 0 mph (NNW)    
Max Wind Speed 6 mph    
Max Gust Speed -    
Visibility 8 miles    
Events Fog , Rain    
Averages and records for this station are not official NWS values.
T = Trace of Precipitation, MM = Missing Value Source: NWS Daily Summary

Daily Weather History Graph

Daily Weather History Graph

Search for Another Location

Airport:

Trip Planner

Search our weather history database for the weather conditions in past years. The results will help you decide how hot, cold, wet, or windy it might be!

Date:

Astronomy

Nov. 10, 2011 Rise Set
Actual Time 6:47 AM EST 5:07 PM EST
Civil Twilight 6:19 AM EST 5:34 PM EST
Nautical Twilight 5:48 AM EST 6:06 PM EST
Astronomical Twilight 5:17 AM EST 6:36 PM EST
Moon 4:55 PM EST (11/10) 6:37 AM EST (11/10)
Length of Visible Light 11h 14m
Length of Day
10h 19m
Full, 100% of the Moon is Illuminated
Nov 10
Full
Nov 10
Full
Nov 18
Last Quarter
Nov 25
New
Dec 2
First Quarter

Hourly Weather History & Observations

Time (EST) Temp. Windchill Dew Point Humidity Pressure Visibility Wind Dir Wind Speed Gust Speed Precip Events Conditions
12:15 AM 48.2 °F - 46.4 °F 93% 29.96 in 10.0 mi Calm Calm - N/A   Clear
12:35 AM 48.2 °F - 46.4 °F 93% 29.95 in 7.0 mi Calm Calm - N/A   Clear
12:55 AM 46.4 °F - 46.4 °F 100% 29.95 in 7.0 mi Calm Calm - N/A   Scattered Clouds
1:15 AM 46.4 °F - 46.4 °F 100% 29.94 in 7.0 mi Calm Calm - N/A   Clear
1:35 AM 46.4 °F - 44.6 °F 93% 29.93 in 7.0 mi Calm Calm - N/A   Clear
1:55 AM 44.6 °F - 44.6 °F 100% 29.92 in 7.0 mi Calm Calm - N/A   Clear
2:15 AM 44.6 °F - 42.8 °F 93% 29.92 in 7.0 mi Calm Calm - N/A   Clear
2:35 AM 44.6 °F - 44.6 °F 100% 29.92 in 5.0 mi Calm Calm - N/A   Clear
3:15 AM 44.6 °F - 42.8 °F 93% 29.91 in 2.5 mi Calm Calm - N/A   Clear
3:35 AM 42.8 °F - 42.8 °F 100% 29.89 in 7.0 mi Calm Calm - N/A   Clear
3:55 AM 44.6 °F - 42.8 °F 93% 29.89 in 7.0 mi Calm Calm - N/A   Clear
4:15 AM 44.6 °F - 42.8 °F 93% 29.88 in 7.0 mi Calm Calm - N/A   Clear
4:35 AM 42.8 °F - 41.0 °F 93% 29.88 in 7.0 mi Calm Calm - N/A   Clear
4:55 AM 42.8 °F - 41.0 °F 93% 29.88 in 7.0 mi Calm Calm - N/A   Clear
5:15 AM 42.8 °F - 41.0 °F 93% 29.88 in 3.0 mi Calm Calm - N/A   Scattered Clouds
5:35 AM 44.6 °F - 42.8 °F 93% 29.87 in 7.0 mi Calm Calm - N/A   Overcast
5:55 AM 42.8 °F - 42.8 °F 100% 29.87 in 4.0 mi Calm Calm - N/A   Overcast
6:15 AM 42.8 °F - 42.8 °F 100% 29.86 in 0.2 mi Calm Calm - N/A Fog Fog
6:55 AM 42.8 °F - 42.8 °F 100% 29.87 in 1.0 mi Calm Calm - N/A   Overcast
7:15 AM 42.8 °F - 42.8 °F 100% 29.87 in 1.0 mi Calm Calm - N/A   Overcast
7:35 AM 44.6 °F - 42.8 °F 93% 29.87 in 0.5 mi Calm Calm - N/A Fog Fog
7:55 AM 44.6 °F - 44.6 °F 100% 29.87 in 3.0 mi Calm Calm - N/A   Overcast
8:15 AM 46.4 °F - 46.4 °F 100% 29.88 in 5.0 mi Calm Calm - N/A   Overcast
8:35 AM 48.2 °F - 46.4 °F 93% 29.88 in 5.0 mi Calm Calm - N/A   Overcast
8:55 AM 51.8 °F - - N/A% 29.87 in 7.0 mi Calm Calm - N/A   Overcast
9:35 AM 57.2 °F - - N/A% 29.86 in 10.0 mi Calm Calm - N/A   Overcast
9:55 AM 60.8 °F - 51.8 °F 72% 29.86 in 10.0 mi Calm Calm - N/A   Overcast
10:15 AM 60.8 °F - 50.0 °F 68% 29.86 in 10.0 mi Calm Calm - N/A   Overcast
10:35 AM 62.6 °F - 50.0 °F 63% 29.86 in 10.0 mi Calm Calm - N/A   Overcast
10:55 AM 62.6 °F - 48.2 °F 59% 29.86 in 10.0 mi NNE 3.5 mph - N/A   Overcast
11:15 AM 60.8 °F - 48.2 °F 63% 29.86 in 10.0 mi Calm Calm - N/A   Overcast
11:35 AM 60.8 °F - 51.8 °F 72% 29.86 in 7.0 mi Calm Calm - N/A Rain Light Rain
11:55 AM 59.0 °F - 57.2 °F 94% 29.85 in 10.0 mi Calm Calm - N/A Rain Light Rain
12:15 PM 59.0 °F - 57.2 °F 94% 29.84 in 7.0 mi WNW 3.5 mph - N/A Rain Light Rain
12:35 PM 57.2 °F - 55.4 °F 94% 29.84 in 10.0 mi Calm Calm - 0.01 in Rain Light Rain
12:55 PM 55.4 °F - 55.4 °F 100% 29.83 in 10.0 mi Calm Calm - 0.01 in Rain Rain
1:35 PM 55.4 °F - 55.4 °F 100% 29.82 in 10.0 mi Calm Calm - 0.04 in   Overcast
1:55 PM 55.4 °F - 53.6 °F 94% 29.80 in 10.0 mi Calm Calm - N/A Rain Light Rain
2:15 PM 55.4 °F - 53.6 °F 94% 29.80 in 10.0 mi Calm Calm - N/A   Overcast
2:35 PM 55.4 °F - 53.6 °F 94% 29.81 in 7.0 mi WSW 3.5 mph - N/A Rain Rain
2:55 PM 55.4 °F - 53.6 °F 94% 29.81 in 10.0 mi Calm Calm - 0.02 in Rain Rain
3:15 PM 53.6 °F - 53.6 °F 100% 29.81 in 10.0 mi Calm Calm - 0.03 in   Drizzle
3:35 PM 53.6 °F - 53.6 °F 100% 29.81 in 10.0 mi Calm Calm - 0.04 in Rain Light Rain
3:55 PM 53.6 °F - 53.6 °F 100% 29.81 in 10.0 mi Calm Calm - N/A   Overcast
4:15 PM 55.4 °F - 53.6 °F 94% 29.80 in 10.0 mi Calm Calm - N/A Rain Rain
4:35 PM 53.6 °F - 51.8 °F 94% 29.79 in 10.0 mi Calm Calm - 0.01 in   Overcast
4:55 PM 53.6 °F - 51.8 °F 94% 29.79 in 10.0 mi Calm Calm - N/A   Overcast
5:15 PM 53.6 °F - 51.8 °F 94% 29.82 in 7.0 mi Calm Calm - N/A   Overcast
5:35 PM 51.8 °F - - N/A% 29.82 in 5.0 mi Calm Calm - N/A   Light Drizzle
5:55 PM 51.8 °F - - N/A% 29.80 in 10.0 mi Calm Calm - N/A Rain Light Rain
6:15 PM 51.8 °F - - N/A% 29.81 in 7.0 mi Calm Calm - N/A   Mostly Cloudy
6:35 PM 51.8 °F - - N/A% 29.81 in 7.0 mi Calm Calm - N/A   Mostly Cloudy
6:55 PM 51.8 °F - - N/A% 29.82 in 5.0 mi North 5.8 mph - N/A   Haze
7:15 PM 51.8 °F - - N/A% 29.83 in 7.0 mi North 4.6 mph - N/A   Overcast
7:35 PM 50.0 °F - - N/A% 29.83 in 10.0 mi North 5.8 mph - N/A   Overcast
7:55 PM 50.0 °F - - N/A% 29.83 in 7.0 mi North 3.5 mph - N/A   Mostly Cloudy
8:15 PM 50.0 °F - 48.2 °F 94% 29.84 in 10.0 mi North 3.5 mph - N/A   Mostly Cloudy
8:35 PM 48.2 °F - 42.8 °F 82% 29.85 in 10.0 mi NW 3.5 mph - N/A   Overcast
8:55 PM 46.4 °F - 44.6 °F 93% 29.85 in 10.0 mi Calm Calm - N/A   Mostly Cloudy
9:15 PM 44.6 °F - 44.6 °F 100% 29.86 in 10.0 mi Calm Calm - N/A   Mostly Cloudy
9:35 PM 44.6 °F - 42.8 °F 93% 29.86 in 10.0 mi Calm Calm - N/A   Mostly Cloudy
9:55 PM 42.8 °F - 42.8 °F 100% 29.86 in 10.0 mi Calm Calm - N/A   Scattered Clouds
10:15 PM 42.8 °F - 42.8 °F 100% 29.86 in 10.0 mi Calm Calm - N/A   Clear
10:35 PM 42.8 °F - 41.0 °F 93% 29.86 in 10.0 mi Calm Calm - N/A   Clear
10:55 PM 37.4 °F - 37.4 °F 100% 29.86 in 7.0 mi Calm Calm - N/A   Clear
11:15 PM 39.2 °F 37.0 °F 39.2 °F 100% 29.86 in 10.0 mi WSW 3.5 mph - N/A   Clear
11:35 PM 39.2 °F 35.9 °F 37.4 °F 93% 29.86 in 10.0 mi WSW 4.6 mph - N/A   Clear
11:55 PM 37.4 °F 34.9 °F 37.4 °F 100% 29.86 in 10.0 mi WSW 3.5 mph - N/A   Clear